When you browse on this site, cookies collect data to enhance your experience and personalize the content and advertising you see.
Visit our Privacy Policy to learn more. By continuing to use the site, you agree to this use of cookies and data.
  • en Suisse
  • Liste des pays
  • À 7 jours
  • Température de l'eau
  • Carte météo
  • Widgets météo
  • user-avatar
    Se connecter

    Météo par heure à Northampton

    Ce jour, 19 Septembre, Jeudi

    Heure Température Précipitation Vent Pression Humidité
    00:00 +11°C° 0 mm 0 m/s 764 mmHg 84%
    01:00 +11°C° 0 mm 0 m/s 764 mmHg 85%
    02:00 +10°C° 0 mm 0 m/s 764 mmHg 86%
    03:00 +10°C° 0 mm 0 m/s 764 mmHg 86%
    04:00 +10°C° 0 mm 0 m/s 764 mmHg 87%
    05:00 +10°C° 0 mm 0 m/s 764 mmHg 88%
    06:00 +10°C° 0 mm 0 m/s 764 mmHg 88%
    07:00 +11°C° 0 mm 0 m/s 764 mmHg 82%
    08:00 +13°C° 0 mm 0 m/s 764 mmHg 75%
    09:00 +15°C° 0 mm 0 m/s 765 mmHg 69%
    10:00 +16°C° 0 mm 0 m/s 765 mmHg 65%
    11:00 +18°C° 0 mm 0 m/s 765 mmHg 60%
    12:00 +21°C° 0 mm 1 m/s 765 mmHg 56%
    13:00 +21°C° 0 mm 1 m/s 764 mmHg 55%
    14:00 +21°C° 0 mm 1 m/s 764 mmHg 53%
    15:00 +22°C° 0 mm 1 m/s 764 mmHg 52%
    16:00 +20°C° 0 mm 1 m/s 764 mmHg 57%
    17:00 +19°C° 0 mm 1 m/s 763 mmHg 62%
    18:00 +18°C° 0 mm 1 m/s 763 mmHg 67%
    19:00 +16°C° 0 mm 1 m/s 763 mmHg 70%
    20:00 +15°C° 0 mm 2 m/s 763 mmHg 73%
    21:00 +14°C° 0 mm 2 m/s 763 mmHg 76%
    22:00 +14°C° 0 mm 2 m/s 763 mmHg 78%
    23:00 +13°C° 0 mm 2 m/s 763 mmHg 81%

    Demain, 20 Septembre, Vendredi

    Heure Température Précipitation Vent Pression Humidité
    00:00 +12°C° 0 mm 2 m/s 763 mmHg 83%
    01:00 +12°C° 0 mm 2 m/s 763 mmHg 85%
    02:00 +12°C° 0 mm 2 m/s 762 mmHg 87%
    03:00 +11°C° 0 mm 1 m/s 762 mmHg 89%
    04:00 +10°C° 0 mm 2 m/s 762 mmHg 91%
    05:00 +10°C° 0 mm 2 m/s 761 mmHg 92%
    06:00 +10°C° 0 mm 2 m/s 761 mmHg 94%
    07:00 +12°C° 0 mm 2 m/s 761 mmHg 88%
    08:00 +13°C° 0 mm 3 m/s 761 mmHg 81%
    09:00 +15°C° 0 mm 4 m/s 761 mmHg 75%
    10:00 +17°C° 0 mm 4 m/s 761 mmHg 69%
    11:00 +17°C° 0 mm 5 m/s 760 mmHg 62%
    12:00 +20°C° 0 mm 5 m/s 759 mmHg 56%
    13:00 +20°C° 0 mm 5 m/s 759 mmHg 54%
    14:00 +20°C° 0 mm 6 m/s 758 mmHg 51%
    15:00 +20°C° 0 mm 6 m/s 757 mmHg 49%
    16:00 +17°C° 0 mm 6 m/s 757 mmHg 54%
    17:00 +16°C° 0 mm 5 m/s 756 mmHg 59%
    18:00 +14°C° 0 mm 5 m/s 756 mmHg 63%
    19:00 +13°C° 0 mm 5 m/s 756 mmHg 68%
    20:00 +13°C° 0 mm 5 m/s 755 mmHg 72%
    21:00 +12°C° 0 mm 5 m/s 755 mmHg 76%
    22:00 +12°C° 0 mm 5 m/s 755 mmHg 77%
    23:00 +12°C° 0 mm 5 m/s 754 mmHg 78%

    Après-demain, 21 Septembre, Samedi

    Heure Température Précipitation Vent Pression Humidité
    00:00 +12°C° 0 mm 5 m/s 754 mmHg 79%
    01:00 +12°C° 0 mm 5 m/s 753 mmHg 78%
    02:00 +12°C° 0 mm 5 m/s 753 mmHg 77%
    03:00 +11°C° 0 mm 4 m/s 752 mmHg 76%
    04:00 +10°C° 0 mm 5 m/s 752 mmHg 76%
    05:00 +10°C° 0 mm 5 m/s 751 mmHg 76%
    06:00 +10°C° 0 mm 5 m/s 751 mmHg 75%
    07:00 +12°C° 0 mm 5 m/s 750 mmHg 70%
    08:00 +14°C° 0 mm 6 m/s 750 mmHg 65%
    09:00 +15°C° 0 mm 6 m/s 750 mmHg 60%
    10:00 +17°C° 0 mm 6 m/s 749 mmHg 57%
    11:00 +19°C° 0 mm 6 m/s 749 mmHg 53%
    12:00 +21°C° 0 mm 6 m/s 749 mmHg 49%
    13:00 +21°C° 0 mm 6 m/s 748 mmHg 50%
    14:00 +22°C° 0 mm 6 m/s 747 mmHg 50%
    15:00 +22°C° 0 mm 6 m/s 747 mmHg 51%
    16:00 +21°C° 0 mm 5 m/s 746 mmHg 56%
    17:00 +19°C° 0 mm 5 m/s 746 mmHg 61%
    18:00 +18°C° 0 mm 4 m/s 746 mmHg 66%
    19:00 +18°C° 0 mm 4 m/s 745 mmHg 68%
    20:00 +16°C° 0 mm 5 m/s 745 mmHg 70%
    21:00 +16°C° 0 mm 5 m/s 745 mmHg 72%
    22:00 +17°C° 0.3 mm 4 m/s 745 mmHg 76%
    23:00 +17°C° 0.3 mm 4 m/s 744 mmHg 80%

    22 Septembre, Dimanche

    Heure Température Précipitation Vent Pression Humidité
    00:00 +17°C° 0.3 mm 3 m/s 744 mmHg 84%
    01:00 +17°C° 0.3 mm 3 m/s 743 mmHg 85%
    02:00 +17°C° 0.3 mm 3 m/s 743 mmHg 87%
    03:00 +17°C° 0.3 mm 2 m/s 742 mmHg 88%
    04:00 +17°C° 0.1 mm 2 m/s 742 mmHg 89%
    05:00 +17°C° 0.1 mm 2 m/s 742 mmHg 90%
    06:00 +17°C° 0.1 mm 2 m/s 742 mmHg 91%
    07:00 +17°C° 0.4 mm 2 m/s 742 mmHg 92%
    08:00 +17°C° 0.4 mm 3 m/s 742 mmHg 92%
    09:00 +18°C° 0.4 mm 3 m/s 742 mmHg 92%
    10:00 +17°C° 0.9 mm 3 m/s 742 mmHg 89%
    11:00 +17°C° 0.9 mm 4 m/s 742 mmHg 87%
    12:00 +15°C° 0.9 mm 5 m/s 742 mmHg 84%
    13:00 +17°C° 0.1 mm 5 m/s 742 mmHg 78%
    14:00 +19°C° 0.1 mm 5 m/s 742 mmHg 71%
    15:00 +20°C° 0.1 mm 5 m/s 742 mmHg 65%
    16:00 +18°C° 0.1 mm 4 m/s 742 mmHg 70%
    17:00 +17°C° 0.1 mm 4 m/s 742 mmHg 75%
    18:00 +16°C° 0.1 mm 3 m/s 742 mmHg 79%
    19:00 +14°C° 0 mm 3 m/s 743 mmHg 84%
    20:00 +14°C° 0 mm 2 m/s 743 mmHg 88%
    21:00 +13°C° 0 mm 2 m/s 744 mmHg 92%
    22:00 +12°C° 0.1 mm 3 m/s 744 mmHg 92%
    23:00 +12°C° 0.1 mm 4 m/s 744 mmHg 92%

    23 Septembre, Lundi

    Heure Température Précipitation Vent Pression Humidité
    00:00 +12°C° 0.1 mm 5 m/s 745 mmHg 92%
    01:00 +12°C° 0 mm 5 m/s 745 mmHg 91%
    02:00 +10°C° 0 mm 5 m/s 745 mmHg 90%
    03:00 +10°C° 0 mm 5 m/s 746 mmHg 88%
    04:00 +10°C° 0 mm 4 m/s 746 mmHg 91%
    05:00 +10°C° 0 mm 4 m/s 746 mmHg 93%
    06:00 +9°C° 0 mm 3 m/s 746 mmHg 95%
    07:00 +11°C° 0 mm 4 m/s 746 mmHg 90%
    08:00 +12°C° 0 mm 4 m/s 746 mmHg 84%
    09:00 +14°C° 0 mm 5 m/s 746 mmHg 79%
    10:00 +13°C° 0.5 mm 5 m/s 746 mmHg 83%
    11:00 +13°C° 0.5 mm 5 m/s 745 mmHg 87%
    12:00 +13°C° 0.5 mm 5 m/s 745 mmHg 92%
    13:00 +13°C° 0.9 mm 6 m/s 744 mmHg 92%
    14:00 +14°C° 0.9 mm 6 m/s 743 mmHg 92%
    15:00 +14°C° 0.9 mm 6 m/s 742 mmHg 92%
    16:00 +15°C° 1.2 mm 6 m/s 741 mmHg 93%
    17:00 +16°C° 1.2 mm 5 m/s 741 mmHg 94%
    18:00 +16°C° 1.2 mm 5 m/s 740 mmHg 95%
    19:00 +16°C° 0.2 mm 5 m/s 741 mmHg 95%
    20:00 +16°C° 0.2 mm 5 m/s 741 mmHg 94%
    21:00 +16°C° 0.2 mm 6 m/s 741 mmHg 93%
    22:00 +15°C° 0 mm 6 m/s 741 mmHg 92%
    23:00 +15°C° 0 mm 6 m/s 742 mmHg 91%

    24 Septembre, Mardi

    Heure Température Précipitation Vent Pression Humidité
    00:00 +15°C° 0 mm 6 m/s 742 mmHg 90%
    01:00 +14°C° 0 mm 6 m/s 742 mmHg 91%
    02:00 +14°C° 0 mm 6 m/s 742 mmHg 92%
    03:00 +14°C° 0 mm 6 m/s 742 mmHg 93%
    04:00 +14°C° 0 mm 6 m/s 742 mmHg 93%
    05:00 +14°C° 0 mm 5 m/s 742 mmHg 93%
    06:00 +14°C° 0 mm 5 m/s 742 mmHg 93%
    07:00 +14°C° 0 mm 5 m/s 742 mmHg 91%
    08:00 +15°C° 0 mm 6 m/s 742 mmHg 88%
    09:00 +15°C° 0 mm 6 m/s 742 mmHg 86%
    10:00 +16°C° 0 mm 6 m/s 742 mmHg 84%
    11:00 +17°C° 0 mm 6 m/s 741 mmHg 83%
    12:00 +17°C° 0 mm 6 m/s 741 mmHg 81%
    13:00 +17°C° 0.8 mm 6 m/s 740 mmHg 83%
    14:00 +17°C° 0.8 mm 7 m/s 740 mmHg 84%
    15:00 +17°C° 0.8 mm 8 m/s 739 mmHg 86%
    16:00 +17°C° 0.3 mm 7 m/s 739 mmHg 85%
    17:00 +16°C° 0.3 mm 7 m/s 739 mmHg 84%
    18:00 +15°C° 0.3 mm 6 m/s 739 mmHg 83%
    19:00 +15°C° 0 mm 6 m/s 740 mmHg 85%
    20:00 +14°C° 0 mm 6 m/s 740 mmHg 87%
    21:00 +13°C° 0 mm 6 m/s 741 mmHg 89%
    22:00 +13°C° 0 mm 6 m/s 740 mmHg 89%
    23:00 +13°C° 0 mm 6 m/s 740 mmHg 90%
    Voir plus